Regional Weather Roundup
Issued by NWS Albany, NY

Home | Current Version | Previous Version | Graphics & Text | Print | Product List | Glossary Off
Versions: 1 2 3 4 5 6 7 8 9 10 11 12 13 14 15 16 17 18 19 20 21 22 23 24 25 26 27 28 29 30 31 32 33 34 35 36 37 38 39 40 41 42 43 44 45 46 47 48 49 50

000
ASUS41 KALY 220410
RWRALY

NEW YORK STATE HOURLY WEATHER ROUNDUP
NATIONAL WEATHER SERVICE ALBANY NY
1200 AM EDT TUE JUL 22 2014

NOTE: "FAIR" INDICATES FEW OR NO CLOUDS BELOW 12,000 FEET WITH NO
SIGNIFICANT WEATHER AND/OR NO OBSTRUCTIONS TO VISIBILITY.

NYZ032-033-038>043-046>054-057>066-NYZ062>081-220500-
EAST


CITY           SKY/WX    TMP DP  RH WIND       PRES   REMARKS
ALBANY         PTCLDY    73  64  73 SE3       30.13F
GLENS FALLS    MOCLDY    67  64  90 CALM      30.13S
POUGHKEEPSIE   PTCLDY    72  64  76 CALM      30.14S
MONTGOMERY     CLEAR     69  64  84 W3        30.16S
WHITE PLAINS   PTCLDY    67  63  87 CALM      30.17F
ISLIP          PTCLDY    69  64  84 SW3       30.16F
NEW YORK CITY  PTCLDY    75  61  61 SW9       30.16F
CENTRAL PARK   CLEAR     73  62  68 CALM      30.20S
$$

NYZ005>009-017-018-044>046-055-056-220500-
CENTRAL


CITY           SKY/WX    TMP DP  RH WIND       PRES   REMARKS
FULTON         CLEAR     67  65  93 CALM      30.12S
SYRACUSE       MOCLDY    75  68  78 CALM      30.11S
ROME           PTCLDY    70  66  87 SE5       30.13F
ELMIRA         CLOUDY    72  68  87 CALM      30.15F
BINGHAMTON     CLOUDY    70  64  81 SW6       30.18F
MONTICELLO     CLEAR     66  64  94 CALM      30.21S
$$

NYZ026>034-041>043-220500-
NORTH


CITY           SKY/WX    TMP DP  RH WIND       PRES   REMARKS
WATERTOWN      CLEAR     65  60  84 CALM      30.11F HAZE
FORT DRUM      NOT AVBL
MASSENA        CLEAR     66  64  93 CALM      30.10F
SARANAC LAKE   FOG       57  56  96 CALM      30.16S VSB 1/2
PLATTSBURGH    CLEAR     70  64  81 W3        30.10S
$$

NYZ001>004-010>016-019>021-220500-
WEST


CITY           SKY/WX    TMP DP  RH WIND       PRES   REMARKS
NIAGARA FALLS  CLEAR     68  64  87 S5        30.12F
BUFFALO        PTCLDY    69  58  67 S5        30.13F
DUNKIRK        CLEAR     62  58  86 CALM      30.14S
JAMESTOWN      CLEAR     66  57  72 CALM      30.18S
WELLSVILLE     CLOUDY    73  64  73 CALM      30.21F
ROCHESTER      CLEAR     68  66  93 CALM      30.13F
PENN YAN       CLEAR     70  68  93 SW6       30.15S FOG
$$

             KEY
       WCI = WIND CHILL INDEX
       VSB = VISIBILITY
       HX  = HEAT INDEX
$$



USA.gov is the U.S. government's official web portal to all federal, state and local government web resources and services.